Theta_e
352 354 356 356 358 359 357 357 359 361 363 358 360 361 359 357 360 361 360 360 356 354 354 353 355 355 354 351 352 354 355 356 356 352 356 354 359 366 360 357 356 357 357 358 357 356 356 357 357 357 358 358 359 360 360 360 360 361 361 362 362 362 363 364 364 364 365 366 366 366 367 367 368 368 369 369 369 367 367 367 367 368 367 367 367
353 356 356 358 358 359 360 360 359 360 361 360 359 359 356 358 359 361 358 358 355 354 356 352 350 351 351 351 349 349 354 352 353 355 354 354 356 367 360 359 357 357 358 358 357 358 358 358 358 359 360 360 360 361 361 361 362 362 362 362 363 364 364 364 365 366 366 367 367 367 368 368 369 369 369 370 369 368 368 368 368 368 367 366 366
354 358 357 358 361 363 361 361 357 358 363 359 361 362 360 358 357 357 360 360 355 353 354 354 352 349 350 349 347 350 349 351 349 348 348 351 356 357 366 359 358 357 359 359 359 359 359 360 360 360 361 361 362 362 362 362 362 362 362 364 364 364 364 365 365 367 368 368 368 368 369 369 370 370 370 370 370 368 369 369 368 367 366 366 365
359 360 361 361 360 359 361 361 359 360 363 361 361 363 361 361 363 366 364 361 355 353 356 350 351 348 351 347 348 349 347 350 346 345 347 351 355 355 357 361 358 357 358 360 360 360 360 360 361 361 361 362 362 363 363 363 363 364 364 364 365 365 366 367 367 368 368 369 369 369 370 370 370 370 370 370 370 369 369 369 367 366 366 366 365
361 362 362 360 361 360 359 363 364 365 364 362 361 365 362 359 361 361 358 359 352 353 348 349 349 350 350 347 348 348 350 349 349 348 346 350 353 351 355 355 358 360 358 360 361 362 361 361 362 362 362 362 362 363 364 363 364 365 365 365 366 367 367 368 368 368 368 369 370 371 371 371 370 370 370 370 370 370 369 368 367 366 365 365 365
362 364 364 361 362 362 361 361 364 365 365 362 360 362 360 361 360 359 357 357 352 351 346 347 346 348 350 348 350 352 352 349 350 350 351 352 353 357 355 355 354 359 362 363 362 362 363 363 362 362 362 363 363 364 364 364 365 365 366 366 367 368 369 369 369 369 370 370 371 371 371 370 370 371 370 370 370 369 368 366 366 365 365 364 364
368 366 363 364 359 360 362 362 364 366 362 362 360 363 363 362 358 359 358 355 354 351 349 348 346 347 350 352 349 350 352 350 353 352 352 357 357 355 356 356 354 357 357 358 367 363 363 364 364 364 364 364 364 365 366 366 366 367 367 367 368 369 369 370 370 370 371 371 371 371 371 371 371 371 370 370 370 369 367 366 365 365 364 364 364
370 369 362 361 360 359 361 364 364 364 361 361 363 361 362 360 362 360 355 353 355 351 352 348 346 345 348 351 350 352 350 351 352 350 351 356 358 358 358 358 357 356 356 356 359 369 366 364 364 364 365 365 365 366 366 367 368 368 369 369 369 369 370 371 371 371 372 371 371 371 371 371 371 371 371 371 370 369 367 366 365 364 364 364 364
371 370 361 361 358 361 360 361 363 363 359 360 358 361 362 354 361 363 361 356 351 349 349 348 345 344 346 346 347 352 351 355 353 353 351 355 355 354 357 359 359 355 356 356 359 361 369 367 366 365 365 365 366 366 367 367 368 369 369 369 369 370 371 371 371 372 372 372 372 372 372 371 371 372 372 370 368 367 366 366 365 364 364 364 363
369 368 364 361 362 362 363 361 362 361 360 358 358 360 361 360 358 362 362 359 353 352 349 347 340 339 345 344 349 348 350 352 354 354 353 354 356 354 355 353 357 357 356 357 355 360 361 370 367 366 366 366 366 366 367 367 368 368 369 369 370 371 371 371 372 373 373 373 373 372 372 372 373 372 371 369 368 366 366 366 365 364 364 363 363
368 367 364 358 358 360 363 362 363 361 360 360 359 360 361 360 359 359 363 361 357 355 352 350 341 340 340 343 345 351 352 349 354 353 351 350 351 353 351 358 356 356 360 359 355 358 362 365 369 372 369 366 367 367 367 367 367 369 370 368 369 370 372 373 372 373 373 372 372 373 373 372 372 371 368 367 367 366 366 366 365 364 363 363 363
366 366 365 362 358 361 362 362 362 362 359 359 357 358 360 359 360 355 358 358 358 356 355 351 346 345 344 345 345 347 348 349 349 349 353 352 353 354 351 353 356 358 356 359 359 355 360 366 368 362 362 364 367 368 368 368 368 368 368 369 368 368 368 369 370 371 372 371 373 374 373 373 372 370 368 366 366 366 366 365 365 364 363 362 362
366 365 364 363 363 362 364 363 364 364 363 362 359 360 363 361 359 364 356 355 354 354 354 352 348 342 346 343 346 347 348 348 347 346 347 348 350 350 351 353 355 355 361 357 357 357 356 364 366 368 366 366 372 370 370 369 369 367 366 365 367 368 368 368 368 368 370 372 374 375 374 373 371 369 368 367 366 366 366 365 364 363 362 361 361
366 367 366 363 362 361 363 364 362 366 365 365 363 362 364 362 359 356 359 354 353 353 355 352 345 339 338 339 339 345 347 343 343 343 345 347 349 352 355 349 349 352 356 358 361 357 354 357 367 364 368 370 369 368 374 376 372 369 368 368 368 368 368 368 368 370 372 374 375 374 373 372 370 368 367 366 366 366 366 365 364 363 362 361 360
365 365 363 362 362 362 363 364 365 366 364 365 365 362 361 359 360 356 354 355 353 354 356 355 346 346 347 341 336 335 342 341 344 343 344 345 347 347 349 347 350 353 356 357 359 359 352 354 357 362 366 370 369 368 369 369 366 372 369 369 367 366 366 367 368 370 372 375 375 374 373 372 370 368 366 366 366 367 366 365 364 363 361 360 360
361 361 363 363 364 364 364 364 366 367 364 363 362 361 361 361 357 358 359 351 352 354 356 356 353 348 341 340 341 335 331 336 341 343 343 344 344 343 347 346 348 353 356 354 352 356 358 359 358 364 369 369 370 367 367 364 365 369 368 368 365 365 366 366 368 371 374 376 375 374 372 371 370 370 368 366 366 367 366 364 363 363 362 361 359
363 363 362 366 367 366 365 365 366 367 365 363 361 360 359 360 361 361 360 353 351 353 355 354 356 355 349 344 341 337 340 340 339 340 341 340 343 344 347 346 346 350 349 351 354 358 354 354 359 362 368 373 374 372 365 366 366 369 373 371 371 368 367 366 369 373 376 377 375 374 373 371 371 369 369 366 367 366 365 365 364 363 362 359 359
360 364 365 367 368 366 366 365 364 367 364 361 362 357 361 361 363 359 360 361 358 352 351 359 353 359 356 351 350 341 340 344 338 339 350 347 344 345 348 347 348 348 354 352 352 352 358 356 359 359 362 364 364 363 363 364 368 363 362 374 369 367 368 370 371 373 375 377 374 374 372 373 372 370 368 367 367 366 365 364 364 363 362 359 359
361 363 365 365 365 366 366 364 365 364 364 362 361 357 357 360 362 363 362 363 361 355 351 350 358 356 353 353 353 352 349 343 340 341 340 346 345 344 345 347 348 347 348 349 350 352 356 358 355 356 358 364 363 362 368 366 364 368 366 367 368 370 372 372 373 373 374 376 375 372 373 372 372 371 370 368 366 366 365 364 364 363 361 359 359
360 364 363 363 364 364 367 364 363 365 362 360 358 359 361 363 362 364 363 365 362 356 355 355 352 353 355 352 353 353 351 348 348 343 340 338 341 345 346 347 347 345 347 348 349 351 353 358 358 354 358 360 362 364 367 366 367 367 368 366 370 372 371 373 374 373 374 374 374 373 372 373 372 372 369 368 366 365 365 365 364 363 360 358 358
361 360 363 362 363 363 365 364 364 366 365 362 361 360 360 362 364 363 365 364 364 361 359 356 352 350 355 357 352 350 349 351 349 350 345 342 337 337 339 345 348 348 352 350 351 353 352 355 356 355 363 364 366 364 364 367 365 367 369 366 367 371 372 371 371 372 374 374 374 373 371 372 373 372 371 369 367 366 366 365 365 364 360 358 359
359 360 363 363 363 364 361 363 364 362 362 363 365 362 361 363 363 363 367 366 366 361 359 358 356 355 352 354 354 352 350 347 347 348 347 350 342 339 341 342 342 347 349 350 352 349 352 355 355 355 358 363 365 363 368 370 368 361 363 363 369 368 370 368 368 369 370 371 372 373 372 370 370 372 371 369 368 366 366 364 364 363 360 358 359
358 362 360 361 363 363 362 363 365 366 362 363 363 360 360 362 361 364 365 365 362 362 360 360 358 358 354 353 352 349 350 349 348 348 347 343 341 340 342 344 340 340 348 351 353 352 354 355 354 353 362 362 364 367 369 368 367 367 363 365 366 367 366 367 367 366 367 367 366 368 369 371 371 371 371 369 369 367 366 366 365 362 359 358 359
360 360 362 359 363 361 364 366 366 364 361 362 363 362 362 362 363 364 365 365 365 362 360 359 357 358 357 353 352 352 351 349 350 350 349 348 346 343 340 343 343 344 345 354 354 353 354 354 354 356 359 362 366 369 368 368 373 361 366 366 361 364 368 365 366 366 365 364 364 365 366 367 368 370 371 371 369 368 367 366 365 363 359 358 360
358 357 357 359 363 361 364 364 365 366 366 365 365 364 363 360 364 362 364 364 365 365 362 361 359 356 354 355 354 352 350 352 351 349 349 350 349 346 347 348 344 345 349 351 351 354 354 355 357 358 361 363 362 368 366 363 368 366 364 360 361 365 361 363 363 362 362 361 361 362 365 366 367 368 367 368 368 368 367 366 365 363 360 358 359
356 359 359 359 359 362 363 364 368 368 369 370 367 365 366 364 364 364 362 365 366 366 365 363 363 361 360 357 356 354 354 355 354 353 352 350 348 348 349 350 350 345 348 350 356 351 353 355 356 360 359 362 363 365 367 363 364 365 365 364 364 357 358 360 360 360 360 360 360 361 361 362 364 365 367 368 367 367 367 366 365 364 359 358 359
358 362 364 363 363 364 364 365 366 367 370 368 363 365 366 367 365 367 367 365 366 364 361 361 357 359 361 360 358 358 356 357 355 357 355 353 352 352 352 349 347 346 346 349 348 350 350 354 355 357 362 367 368 367 366 365 365 362 366 367 368 355 357 356 358 359 359 358 358 361 362 362 363 364 365 366 368 368 366 365 364 362 360 358 359
362 364 362 362 363 363 364 363 365 365 367 368 367 365 368 364 366 367 366 362 364 365 365 362 360 360 360 361 360 357 359 357 358 356 356 357 357 358 357 355 350 346 345 343 347 347 353 352 355 359 362 367 366 367 366 364 364 364 366 369 369 365 354 355 355 354 354 354 356 358 359 360 361 362 362 363 366 368 368 366 364 363 360 358 358
359 362 363 365 365 364 363 362 364 366 367 367 366 367 367 365 363 364 362 362 365 366 364 363 363 360 359 358 358 358 359 361 358 356 358 362 361 360 358 355 357 351 347 341 342 346 352 354 350 358 363 366 367 364 365 367 366 362 363 369 367 372 354 351 351 350 351 351 352 355 357 358 359 359 360 361 362 364 367 367 365 364 361 359 359
358 357 360 362 364 363 363 363 364 365 366 366 366 367 368 367 364 366 365 367 365 366 365 363 362 361 360 359 358 356 360 359 358 358 360 361 357 357 357 357 358 354 352 348 347 351 350 354 354 354 361 364 362 361 361 364 361 361 365 367 367 368 350 351 352 350 350 348 349 352 354 355 357 358 357 358 359 361 364 366 365 364 362 359 359
361 362 362 359 361 362 363 363 363 363 364 365 366 367 368 366 364 363 365 368 366 365 366 365 361 361 362 361 361 361 365 364 362 357 358 359 358 357 356 358 358 360 359 356 347 350 353 351 354 357 357 360 361 361 361 362 362 362 366 368 370 359 354 360 351 350 350 348 347 348 349 352 354 354 354 356 357 359 362 364 364 362 361 358 358
358 359 358 358 357 359 359 358 357 360 361 361 363 365 368 367 364 360 360 365 366 368 364 362 358 360 358 360 364 364 365 365 363 362 363 363 363 360 359 358 361 362 361 358 353 350 355 353 355 357 358 360 362 361 363 362 364 360 369 367 370 361 367 369 351 351 350 349 348 347 346 348 351 351 351 353 354 356 360 362 363 361 359 357 356
357 357 356 357 358 357 357 361 359 362 363 365 364 365 366 368 367 367 366 366 366 364 365 365 363 360 361 362 365 366 367 364 364 363 360 361 362 361 362 359 357 361 359 358 355 355 358 360 357 356 358 360 358 362 361 361 361 363 363 367 369 366 364 363 367 349 350 348 347 346 346 346 347 347 349 351 352 353 355 359 359 359 357 355 354
356 354 356 356 358 356 358 359 362 361 364 366 364 361 364 364 366 361 361 366 368 359 357 354 357 362 361 362 364 366 367 364 362 359 359 358 358 355 354 355 355 358 361 356 356 355 354 358 359 359 356 359 354 361 361 359 360 365 364 363 365 364 362 365 364 365 347 348 347 346 346 345 345 345 347 348 349 350 350 351 351 348 349 350 347
354 355 354 355 358 361 361 361 363 363 363 362 362 361 363 363 363 361 360 357 358 358 359 358 354 356 359 360 362 364 365 363 362 361 362 362 358 358 355 356 355 358 357 358 355 353 354 356 359 358 355 356 356 358 361 361 363 362 362 361 360 359 360 361 361 358 345 349 348 348 346 345 345 345 346 345 346 346 345 343 338 336 339 339 336
348 354 355 356 358 361 359 360 362 363 362 363 359 358 362 365 365 365 364 362 361 361 361 359 355 356 359 360 360 362 364 362 362 364 363 360 358 357 355 357 356 353 356 357 360 357 356 353 357 356 357 357 357 359 359 361 358 358 359 360 361 359 360 359 360 360 352 349 350 348 347 345 346 344 343 343 342 340 337 336 335 334 333 332 332
348 349 354 356 357 358 355 356 358 359 359 360 359 360 359 363 364 363 365 365 363 365 365 358 356 358 360 359 360 362 362 359 361 361 361 360 358 357 355 355 358 358 356 357 358 358 356 354 354 356 357 356 359 358 358 354 357 357 358 357 356 358 360 359 357 356 349 346 345 346 345 348 346 343 343 341 340 338 337 335 334 333 331 329 329
350 349 349 352 353 355 356 356 358 360 362 362 362 363 361 361 362 364 365 363 362 362 363 358 357 360 360 362 363 362 361 361 361 361 362 361 358 354 353 355 356 356 356 357 359 357 350 349 348 348 353 351 351 354 357 356 353 351 354 356 356 357 357 355 355 355 356 356 356 356 345 344 343 341 339 339 338 336 335 335 332 332 330 328 326
350 348 348 351 352 352 354 355 359 362 363 362 367 367 367 366 366 364 364 364 363 364 364 364 362 361 360 362 363 362 362 364 362 362 362 359 356 356 356 355 356 355 354 353 352 349 348 347 350 355 355 357 356 352 356 357 354 352 346 346 346 352 354 353 350 348 350 350 351 344 343 344 343 349 336 336 335 333 333 333 332 332 332 328 325
350 349 347 347 351 353 353 356 365 367 367 367 370 369 368 366 365 363 363 364 364 363 364 365 365 364 363 359 358 359 362 363 362 362 362 360 359 355 352 352 352 349 348 349 348 348 349 350 350 346 344 343 349 353 352 350 345 345 345 344 344 346 348 351 346 341 343 348 347 350 342 342 343 343 335 335 334 332 333 333 333 332 331 328 327
353 351 350 348 351 356 358 359 364 365 366 363 358 357 360 363 365 363 366 365 364 366 364 361 359 359 359 360 361 360 359 359 358 357 355 352 351 346 350 347 350 354 354 349 349 349 348 349 349 346 340 343 343 340 341 339 339 339 343 345 344 346 347 347 344 341 340 341 344 347 338 339 342 346 348 346 345 341 337 333 331 331 329 327 327
358 357 356 355 355 354 357 360 363 364 360 352 342 340 343 355 359 360 364 363 364 362 360 359 358 356 357 357 357 356 355 356 356 354 350 350 349 351 352 353 354 353 352 353 351 350 344 342 342 342 341 336 334 337 338 338 341 342 341 343 341 342 343 341 340 338 336 339 342 346 339 336 338 343 344 342 342 341 337 333 329 328 327 326 325
361 362 359 357 359 361 360 360 359 355 349 342 331 332 335 339 353 361 363 363 362 360 358 357 357 355 354 354 354 351 349 347 348 351 351 349 350 351 350 349 349 348 348 350 348 345 343 338 335 335 334 333 333 335 335 335 336 337 338 341 340 339 335 333 330 334 335 338 342 342 336 334 336 337 342 340 339 337 335 329 325 325 325 325 324
360 360 361 360 361 361 361 356 355 350 344 329 325 330 332 334 341 355 361 359 360 359 359 356 353 354 353 350 347 348 345 345 347 347 348 348 347 346 346 344 342 341 340 342 343 340 339 335 332 331 330 329 329 330 329 330 332 335 337 338 340 336 334 332 331 329 332 337 339 339 334 331 332 332 338 338 338 336 329 325 324 324 324 324 324
361 358 358 357 356 355 355 352 349 350 346 326 325 326 330 331 336 350 357 358 355 356 354 352 351 350 347 345 343 343 343 343 346 344 342 340 342 341 341 342 342 339 332 332 335 337 336 332 330 328 330 329 327 329 330 331 334 333 335 334 337 336 334 331 330 331 329 333 336 336 331 329 330 331 329 335 336 336 334 327 323 323 322 322 321
358 356 355 354 354 354 353 351 350 346 344 328 322 326 328 329 333 347 354 350 349 347 346 344 342 341 341 341 341 341 342 345 344 342 340 336 336 336 335 334 334 336 338 336 335 335 335 333 332 329 329 331 328 331 333 334 332 331 332 331 335 336 334 332 334 332 332 330 329 333 330 326 328 327 327 330 335 335 337 326 322 321 321 321 321
351 350 347 347 347 348 349 350 349 343 338 321 321 324 325 328 336 349 348 345 343 342 341 340 339 337 337 339 340 339 339 341 343 341 339 337 335 333 332 331 330 329 329 330 332 333 333 332 330 329 329 330 331 331 333 335 334 334 333 333 333 334 336 337 336 335 331 331 329 330 327 326 327 326 325 327 331 336 337 324 322 322 321 321 321
343 341 339 340 341 344 346 346 345 344 342 320 320 323 327 335 341 345 342 339 336 335 336 337 337 338 339 338 337 336 337 336 336 337 339 338 333 331 330 330 329 328 327 329 325 328 332 331 331 331 330 330 328 330 331 331 334 335 335 333 333 333 331 329 326 329 329 330 328 326 326 328 329 326 325 327 331 334 334 337 322 324 323 322 321
337 335 335 336 340 341 342 343 343 341 340 323 320 325 327 329 337 341 339 336 334 334 335 337 337 336 337 337 337 337 338 338 335 329 335 338 335 332 330 329 329 329 327 328 327 325 324 322 322 324 324 325 324 321 321 322 330 333 332 329 327 328 326 324 325 325 326 329 327 326 325 324 328 328 326 328 329 332 331 332 336 325 322 320 320
331 333 335 337 338 340 339 339 340 337 334 324 318 319 323 327 337 339 336 333 332 334 335 336 336 336 336 336 337 336 336 338 327 329 333 338 334 331 330 328 327 326 327 328 329 330 326 325 325 325 325 326 328 326 323 322 323 328 330 326 328 327 325 324 321 324 325 327 325 325 323 323 326 329 326 328 329 331 328 330 333 333 323 320 318
330 334 336 334 333 335 336 337 336 337 336 329 316 317 320 326 334 337 336 334 333 334 333 332 332 332 333 335 335 333 331 325 319 322 328 335 332 331 329 327 326 325 328 330 328 328 330 329 329 328 327 327 328 328 328 328 326 325 325 326 327 326 323 323 323 323 320 323 324 325 319 321 322 324 325 322 321 325 330 330 331 334 335 335 336
Wind_Speed
6 6 5 5 4 3 3 4 4 4 2 4 4 3 3 4 3 2 3 2 1 3 2 2 1 3 0 2 2 2 2 2 2 2 2 2 2 9 9 8 7 6 6 6 6 8 8 9 9 10 11 11 11 12 11 11 12 12 12 12 13 13 13 13 14 14 14 15 15 16 16 16 16 15 15 15 16 16 16 15 15 15 14 13 12
5 5 5 4 4 4 4 4 4 3 4 4 3 3 3 2 3 3 4 4 3 5 1 3 2 4 2 2 2 2 4 2 2 2 3 2 2 6 10 9 8 7 7 7 8 8 9 9 10 10 10 11 12 12 12 12 12 12 12 13 13 13 13 13 14 14 14 15 15 16 16 16 15 15 15 15 15 16 15 15 14 13 13 12 12
6 4 4 4 4 3 4 4 4 4 3 4 3 4 3 3 5 5 5 4 4 4 2 2 4 2 4 2 4 3 3 3 2 3 4 3 2 1 8 10 9 9 8 8 9 9 10 10 11 11 11 11 11 11 12 12 12 12 13 13 14 14 14 14 14 15 15 16 15 15 15 15 15 14 15 15 15 15 14 13 12 12 12 12 12
3 3 4 3 4 4 5 4 4 4 3 4 4 3 3 3 3 3 3 2 3 4 2 2 4 5 3 5 4 3 4 2 2 5 3 4 1 2 2 5 11 10 10 9 10 10 11 11 11 11 12 12 12 12 12 13 13 13 13 14 14 14 14 14 14 15 16 15 15 15 15 15 14 14 15 14 14 14 12 12 11 11 11 11 12
3 3 3 4 4 4 5 4 4 4 4 4 4 2 3 3 3 2 4 3 4 3 2 4 5 3 3 5 4 5 4 4 3 3 4 3 3 1 1 2 3 12 11 10 11 11 12 12 12 12 12 12 13 13 13 14 14 14 14 14 15 15 15 15 16 16 16 16 15 15 15 14 14 14 14 13 12 12 11 11 11 11 11 11 12
2 2 1 4 5 4 4 4 3 3 4 4 3 3 4 4 4 3 3 4 4 4 3 4 4 4 3 5 4 4 3 4 3 5 2 2 4 2 1 2 2 3 5 13 12 12 13 13 13 13 13 13 13 14 14 14 15 15 15 15 15 16 16 16 16 16 16 15 15 14 14 14 14 13 13 12 11 10 10 10 10 11 11 11 12
2 2 3 2 4 4 4 4 4 3 3 4 3 3 4 4 4 4 4 4 4 5 4 4 3 5 3 2 4 3 2 4 3 2 3 3 1 2 1 0 1 2 3 3 11 14 13 13 14 13 13 14 14 14 15 15 16 16 16 16 16 16 16 17 16 16 15 14 14 14 13 13 13 12 11 10 9 9 9 9 10 11 10 11 12
2 1 1 2 2 4 4 4 2 3 3 3 2 3 3 3 5 5 5 5 4 3 3 3 2 4 4 2 4 2 2 2 1 0 3 0 1 1 1 2 2 2 2 3 3 6 14 14 14 14 14 14 14 15 16 16 16 17 17 16 16 16 17 16 16 14 14 13 13 13 13 12 11 10 9 8 8 8 8 9 10 11 11 11 11
3 2 2 2 2 2 4 3 2 3 3 3 2 2 3 4 4 5 5 4 4 4 3 1 4 3 4 3 4 2 1 2 0 1 1 1 2 3 3 3 3 4 4 4 4 4 11 13 14 14 14 14 15 15 16 16 17 17 16 16 17 17 16 16 15 13 13 13 13 13 12 11 9 8 8 7 8 8 8 9 10 10 11 11 11
3 3 1 1 2 2 4 3 2 3 2 2 2 3 3 3 3 5 5 4 4 4 4 4 1 2 2 3 3 1 2 2 1 1 2 2 2 2 2 2 4 5 5 4 5 5 5 11 14 14 15 15 15 15 16 16 16 17 17 17 16 16 16 16 14 13 12 12 12 11 10 8 7 7 7 7 7 7 8 9 10 10 10 11 11
3 3 2 1 1 2 2 3 2 2 2 1 0 2 4 4 5 5 4 4 3 4 3 3 2 1 2 3 2 2 0 2 1 1 1 2 2 2 2 3 3 4 5 6 6 6 6 5 6 7 9 17 15 15 15 15 15 16 16 17 16 16 16 16 14 11 11 11 11 9 8 6 6 6 5 6 7 7 8 9 9 9 10 10 11
3 3 1 0 0 1 2 1 1 1 2 2 1 0 3 4 5 7 6 4 1 3 2 3 1 1 2 2 1 1 1 1 1 2 2 3 2 1 2 0 2 2 4 6 6 6 5 6 6 6 6 10 16 13 14 14 15 15 16 15 15 16 16 15 13 12 11 10 9 8 6 5 5 5 5 6 7 8 8 8 9 9 9 10 11
3 2 2 1 0 1 1 1 1 2 1 1 2 3 3 3 2 1 5 3 3 3 3 4 3 2 1 3 3 2 3 2 2 3 3 3 2 3 1 3 1 2 2 2 3 6 5 6 6 6 6 5 7 14 14 14 13 14 14 14 15 16 16 14 13 12 10 9 7 6 6 5 4 5 5 5 7 8 8 8 8 9 9 10 11
3 3 2 1 1 1 1 1 1 2 2 1 1 1 0 2 3 3 4 2 3 3 5 6 3 2 2 2 3 3 1 4 4 5 3 3 3 3 2 4 2 2 2 0 3 5 5 4 4 5 5 4 5 4 6 9 11 14 12 13 14 14 14 13 12 11 9 7 6 6 6 4 5 5 5 6 7 8 8 8 8 8 9 10 11
3 2 2 2 1 1 1 2 1 1 0 0 2 1 1 0 1 2 5 3 3 1 1 4 4 3 1 4 2 4 3 4 3 3 3 4 3 3 3 4 1 1 2 3 2 2 4 5 4 3 3 4 4 4 4 4 3 7 9 10 11 12 12 11 10 9 8 6 6 6 5 5 5 5 5 6 7 7 8 8 8 8 8 9 9
3 3 2 1 1 1 1 1 1 1 1 0 0 1 1 2 1 1 2 5 2 1 2 1 5 5 3 3 4 3 4 2 4 1 3 5 3 6 1 5 4 2 4 4 2 2 3 4 4 2 3 3 3 2 5 4 2 8 9 8 9 9 9 9 9 8 6 6 6 5 5 6 6 6 6 6 7 7 8 8 8 8 8 8 8
2 2 2 1 0 1 1 1 0 1 1 1 1 1 1 0 2 1 1 3 3 2 2 3 0 4 5 4 3 3 2 5 5 5 4 4 2 4 1 4 6 3 4 3 3 3 3 3 1 4 3 3 2 4 5 4 4 5 2 8 6 5 6 7 6 6 4 5 5 5 6 7 7 7 6 6 7 7 8 8 8 8 7 7 7
3 2 1 1 1 1 2 3 2 1 1 2 2 1 3 3 3 1 2 2 3 3 3 2 2 1 3 3 1 5 5 5 6 3 4 5 5 4 4 4 5 5 2 4 3 6 0 5 4 5 3 3 4 6 5 4 2 2 4 4 2 2 4 5 5 5 4 5 6 6 7 7 8 8 7 7 7 7 7 8 8 8 7 7 7
4 3 2 2 2 1 2 3 3 2 2 2 3 3 1 1 1 1 1 2 1 2 1 5 1 4 4 2 2 4 4 4 4 5 5 3 5 6 5 5 5 6 5 4 4 3 3 4 7 6 6 3 4 6 5 4 2 1 3 2 3 3 3 4 5 5 5 5 6 7 7 8 8 8 8 8 8 7 7 8 8 8 8 7 7
3 3 3 3 3 3 3 3 3 3 2 3 3 2 1 1 1 0 1 1 1 2 3 4 3 3 1 5 4 2 3 6 5 5 6 6 5 5 5 4 5 6 4 5 5 3 4 4 4 6 6 4 4 4 5 4 3 4 1 4 2 3 3 3 3 4 5 6 7 7 8 8 9 9 9 9 9 8 7 7 8 8 7 6 6
4 4 4 4 4 4 3 3 3 3 3 3 3 1 1 0 1 2 3 2 2 1 2 3 5 4 1 3 4 5 5 4 4 5 5 6 7 7 7 6 5 5 3 6 4 5 5 5 3 7 4 2 3 4 4 4 4 4 5 4 2 3 3 3 3 5 7 7 8 8 8 9 10 10 10 10 9 8 8 8 8 8 7 6 6
6 5 4 5 4 4 5 5 5 4 4 2 2 2 3 3 3 3 1 2 1 3 3 3 4 5 5 2 3 5 5 6 6 6 5 4 7 7 7 7 6 4 5 5 5 7 6 4 6 6 3 4 3 4 3 3 4 4 6 5 4 3 4 4 5 6 7 8 9 9 9 9 10 10 10 10 10 9 9 9 8 8 7 6 5
4 5 6 6 6 5 5 5 4 2 3 3 4 4 4 4 3 2 3 3 2 3 3 4 4 4 6 4 4 6 5 4 6 6 6 7 7 8 8 6 8 8 5 5 5 7 5 5 5 5 3 4 3 3 3 4 2 4 5 6 3 4 3 4 5 6 7 8 8 9 10 10 10 10 10 10 10 10 10 9 9 8 8 7 5
4 4 5 6 5 5 5 5 4 4 4 4 4 3 3 3 2 2 3 2 3 3 4 4 5 4 5 6 5 5 6 5 6 5 5 5 6 8 8 7 7 6 6 5 5 6 5 5 4 3 3 4 4 2 3 4 6 5 7 8 3 2 2 4 5 5 6 7 8 9 9 10 10 11 11 10 10 10 10 9 9 9 8 8 6
5 5 5 6 5 5 5 4 3 3 2 3 3 3 4 3 3 3 3 2 3 3 3 4 5 5 6 5 5 6 6 5 5 6 6 5 6 7 7 7 8 7 6 6 5 5 5 3 4 2 3 3 3 1 4 6 4 6 6 2 6 4 2 2 4 5 6 6 7 8 9 9 9 10 10 10 10 10 10 10 10 9 8 8 7
5 5 4 5 6 5 5 6 5 4 3 4 4 4 3 4 3 4 4 3 2 3 5 5 4 5 5 5 6 6 6 6 6 6 6 6 6 7 7 7 8 9 8 9 5 5 2 3 3 1 3 4 5 4 5 4 3 8 5 7 5 2 4 4 5 5 5 6 6 7 7 8 9 9 9 9 10 10 10 10 10 10 9 8 7
4 4 4 4 4 4 5 6 5 5 4 4 4 4 4 4 4 4 4 3 3 4 4 5 5 5 5 5 5 6 6 5 6 6 6 6 6 7 7 7 7 8 7 5 8 5 4 4 5 2 3 2 3 4 4 6 5 7 8 7 5 6 7 3 5 5 5 5 6 6 7 7 8 9 9 10 10 10 11 11 10 10 9 8 7
4 3 5 5 5 5 6 6 5 5 5 5 4 4 3 4 4 4 5 4 4 4 5 6 6 6 6 5 5 6 5 6 6 6 6 6 6 6 6 6 7 8 7 8 6 6 5 6 3 3 2 3 5 6 1 6 2 7 8 5 4 4 7 5 4 4 4 5 5 5 6 7 8 9 9 9 10 10 11 11 11 10 10 9 7
4 6 6 5 5 5 5 5 5 4 5 5 5 4 4 4 4 4 5 6 4 4 5 5 5 6 6 6 5 6 5 5 6 7 8 7 6 6 6 7 6 7 9 8 8 8 6 5 6 2 2 4 5 5 5 5 5 5 6 5 5 3 9 3 1 2 3 5 4 5 5 6 7 8 9 9 9 9 10 11 11 11 10 9 8
6 4 4 5 5 5 5 5 4 5 4 4 5 5 4 5 5 5 5 5 6 5 5 6 6 5 5 6 6 5 5 2 4 5 5 6 7 7 6 7 6 8 8 9 8 7 7 6 5 5 4 5 5 5 4 6 9 5 7 6 6 6 5 4 4 5 3 3 4 5 5 6 7 8 8 9 9 9 9 10 11 11 10 9 8
5 4 4 5 6 6 6 6 6 6 6 6 5 5 5 5 6 5 6 6 6 6 5 6 5 6 4 5 4 3 4 3 5 7 6 7 7 7 7 5 6 8 8 8 9 6 7 8 7 6 6 6 5 6 5 6 5 5 6 7 6 6 11 4 8 7 6 3 2 3 5 5 7 7 8 9 9 9 8 8 9 10 10 8 8
6 7 7 6 6 6 7 8 7 7 6 7 7 6 6 5 6 6 5 3 5 6 6 6 5 6 3 3 4 5 4 4 5 6 6 6 7 7 7 8 7 8 8 8 9 9 7 9 8 8 7 6 6 6 6 7 5 7 5 7 5 5 9 9 3 7 7 5 5 5 6 5 6 6 8 9 10 10 9 8 8 9 8 8 7
5 6 7 7 6 6 7 6 6 5 4 4 3 4 4 5 5 5 5 5 5 7 7 5 2 3 0 5 6 4 4 6 5 5 6 7 8 7 7 8 8 8 8 7 8 9 7 7 7 8 8 7 6 5 7 6 7 5 7 7 6 7 6 4 5 6 7 7 7 7 7 6 6 6 7 8 9 11 11 10 9 7 6 5 5
7 7 7 7 7 7 7 7 7 6 6 6 6 7 7 6 7 6 6 3 3 5 8 4 6 3 3 5 5 5 5 6 7 7 7 8 8 8 8 7 9 7 7 8 7 8 9 6 4 7 9 5 6 6 6 8 7 7 7 7 6 6 6 4 6 6 4 9 8 6 5 5 6 7 8 7 8 10 11 12 11 9 7 3 2
8 7 7 8 6 5 6 5 5 5 5 6 7 8 6 6 6 6 5 3 3 5 2 3 1 6 5 5 5 6 5 6 6 7 6 6 8 8 8 9 9 10 9 6 6 8 9 7 6 6 6 5 6 7 7 6 6 6 6 7 7 7 5 6 7 1 8 8 5 2 3 3 5 7 8 9 8 8 9 9 9 9 8 5 1
8 7 7 7 6 6 6 6 6 5 5 5 4 8 9 6 6 3 3 4 5 6 5 5 6 7 7 7 7 6 6 7 6 6 5 6 7 7 7 5 4 9 9 8 4 4 7 8 7 7 7 6 5 5 6 6 7 6 6 5 7 6 6 7 6 7 7 4 3 3 5 2 4 7 8 10 10 9 9 9 9 9 8 6 3
9 8 7 7 7 7 7 7 7 7 7 6 5 5 11 6 4 5 6 7 7 6 5 6 6 7 8 8 7 6 6 7 7 6 6 7 6 6 8 7 6 4 5 6 5 5 6 8 8 8 9 8 8 9 10 9 7 8 5 6 6 7 6 7 7 6 6 3 2 6 6 4 5 7 9 10 10 10 10 10 11 10 9 7 5
9 8 8 7 7 7 7 7 6 6 5 5 7 9 8 5 4 4 5 5 5 5 5 6 7 7 7 7 6 6 7 7 7 7 7 7 5 6 9 9 7 8 6 5 4 2 5 7 6 6 7 7 7 6 5 8 8 8 8 7 7 6 6 7 8 7 7 7 6 3 2 3 5 5 11 10 10 11 11 11 15 15 13 10 7
9 9 8 8 7 7 7 6 5 3 2 3 2 2 3 3 3 4 5 4 4 5 6 7 8 7 6 5 6 6 7 7 8 7 6 8 6 6 6 7 9 8 7 5 7 6 4 6 5 4 5 2 4 6 6 7 7 6 8 8 7 6 6 7 7 8 9 9 4 12 9 9 7 4 9 8 10 14 14 12 17 16 16 14 10
8 8 9 8 7 7 7 6 4 2 1 0 1 2 2 2 2 3 2 3 2 2 1 3 3 2 4 5 6 6 7 7 8 7 7 7 6 5 5 7 8 9 9 6 4 4 6 5 5 6 7 7 6 6 6 7 7 7 7 8 8 7 7 6 9 9 9 8 9 7 8 10 8 4 11 8 11 13 17 13 15 17 17 17 12
6 7 8 8 7 5 4 2 1 1 2 4 5 4 4 4 3 2 1 0 1 2 4 3 3 4 5 4 4 5 7 10 13 11 10 11 7 5 5 3 6 3 3 4 4 3 2 2 4 3 4 4 6 7 7 8 8 8 8 8 7 7 8 6 7 9 10 10 9 7 7 8 8 7 7 9 7 8 13 15 15 17 17 15 12
7 6 6 5 6 7 5 4 3 2 4 4 6 8 7 5 5 3 2 3 2 1 2 3 5 4 4 4 3 11 12 14 19 18 15 11 8 3 3 1 2 1 1 1 2 3 5 6 5 5 5 6 7 8 8 8 8 8 9 8 8 8 8 7 7 8 10 10 10 7 6 7 8 7 6 7 8 9 9 11 12 13 14 12 10
7 6 6 6 5 3 1 3 3 4 4 5 7 6 7 8 7 4 3 1 1 0 1 2 1 1 3 2 3 8 8 10 12 16 10 6 8 16 19 19 14 8 4 4 6 9 8 7 7 8 8 8 9 9 9 10 9 9 8 7 8 7 8 8 9 6 8 10 9 8 6 7 8 8 7 7 8 7 8 9 12 14 13 11 9
6 5 6 5 3 2 1 1 3 4 5 7 5 6 6 7 7 6 2 3 3 2 1 2 1 1 3 5 4 4 6 7 8 7 13 20 21 22 22 21 22 22 18 11 8 8 8 7 8 8 8 7 8 8 8 9 8 8 8 7 8 7 8 8 7 8 8 10 8 7 6 6 6 7 6 6 7 6 7 10 8 12 12 11 10
4 4 3 3 3 4 3 2 4 4 4 8 6 7 6 6 6 8 3 4 5 5 5 6 6 5 4 4 5 4 4 9 9 7 7 11 17 20 18 18 22 21 17 19 18 12 9 10 10 11 10 7 8 9 9 9 8 8 8 7 8 7 7 7 7 6 9 10 8 7 6 7 8 7 6 6 5 6 4 9 6 8 9 9 10
4 3 3 3 3 2 2 3 3 4 5 8 9 7 5 6 6 6 8 7 7 7 7 7 6 6 5 5 5 6 5 7 10 10 10 12 12 11 11 10 9 14 17 19 17 17 14 10 9 9 9 9 8 8 9 9 9 8 8 9 9 8 6 6 4 5 6 10 10 8 6 7 9 8 7 6 5 5 5 6 5 6 6 6 6
5 5 4 4 4 4 4 3 3 3 5 8 7 6 5 4 3 9 8 7 8 8 8 8 8 7 6 7 10 11 10 10 10 10 9 9 10 10 11 12 13 12 11 10 9 9 9 10 11 11 10 9 9 9 9 8 7 7 6 6 6 6 5 6 4 3 5 9 12 9 7 7 9 8 8 8 7 5 3 8 7 6 4 2 1
8 8 6 5 6 6 6 5 4 4 5 9 7 6 4 4 10 8 9 9 8 8 9 9 9 7 8 9 9 10 9 9 9 9 9 7 9 11 13 12 12 12 12 10 13 13 12 10 10 9 9 8 9 10 10 10 8 7 7 7 8 7 7 7 6 7 4 7 11 11 8 7 8 9 9 9 7 5 5 3 8 6 6 3 2
7 6 6 6 5 7 7 6 6 7 8 11 8 9 9 10 10 9 9 9 9 11 10 10 9 11 10 10 10 9 8 8 7 6 8 9 9 9 10 10 9 9 10 9 10 11 12 11 10 8 6 6 9 12 13 15 12 10 7 7 8 9 8 8 7 8 7 5 8 11 11 8 9 9 9 9 9 6 4 5 2 8 8 8 6
8 6 6 7 5 6 8 8 8 9 9 9 10 11 10 8 10 10 9 9 11 10 11 12 11 12 12 14 10 8 9 8 7 6 7 9 10 9 10 10 10 10 9 7 7 6 8 8 9 8 7 6 6 9 11 12 14 12 10 9 10 8 8 8 8 9 9 6 9 11 9 9 10 9 9 9 9 5 5 5 6 1 10 9 10
7 5 6 8 9 8 8 9 13 12 10 9 10 9 9 10 10 9 9 10 11 12 11 11 10 10 12 13 16 12 9 10 13 11 9 10 10 10 9 10 10 10 8 7 7 8 8 8 7 8 8 9 8 9 9 9 12 12 9 9 8 8 8 8 9 8 7 6 10 12 9 9 10 8 9 9 8 8 6 7 6 6 6 6 2
Wind_Direction
125 115 103 95 103 110 113 99 85 90 119 96 72 67 56 55 57 12 64 16 27 82 85 127 117 126 111 133 127 119 73 64 69 85 65 84 116 133 159 176 198 221 230 246 256 263 269 267 267 271 276 280 282 285 286 288 290 290 290 293 293 294 295 295 295 293 290 289 287 287 287 287 287 289 291 293 294 301 304 307 310 312 313 313 311
109 102 103 110 101 107 106 95 101 99 87 79 74 65 65 59 58 31 28 23 34 76 1 63 113 89 73 62 71 67 99 95 93 74 92 105 100 128 159 176 202 214 233 243 250 256 262 269 269 272 272 274 277 279 283 284 285 284 284 285 286 287 288 288 287 284 282 281 283 283 284 285 286 289 290 289 293 305 310 312 313 315 315 314 314
113 120 116 118 118 99 94 109 96 86 72 82 76 52 42 35 31 12 25 19 30 59 21 90 84 110 86 84 89 99 73 78 129 132 123 92 87 133 150 177 197 213 231 239 249 254 258 265 271 274 277 276 277 278 279 280 281 281 281 281 282 284 284 284 281 279 279 280 282 283 284 285 288 289 288 289 296 309 313 315 315 315 315 314 316
110 132 110 105 103 109 101 88 83 76 55 53 44 43 44 41 43 3 351 333 50 63 66 73 85 81 119 81 85 84 96 95 89 76 66 90 104 131 147 168 188 211 222 239 245 249 257 260 266 269 272 276 277 279 277 278 277 277 278 279 280 282 283 281 279 279 279 279 280 282 283 286 288 287 287 291 298 310 314 316 316 316 317 318 320
115 105 138 108 99 107 101 79 68 54 51 34 52 31 46 37 43 36 26 22 51 62 108 109 93 65 90 106 90 81 92 97 88 109 91 116 127 123 128 162 185 191 216 235 239 246 249 254 258 263 266 270 273 273 274 274 275 275 276 276 277 278 279 279 278 277 276 278 279 280 282 283 284 285 287 293 303 312 316 315 317 319 321 324 325
124 107 179 123 112 93 87 82 69 52 54 23 29 27 40 24 17 23 34 27 51 48 60 78 100 132 104 86 93 81 93 98 96 89 105 89 81 101 153 157 192 207 203 206 228 238 244 248 251 256 260 261 265 266 268 269 269 270 270 271 273 274 274 275 275 274 275 276 277 278 278 279 280 283 290 301 309 313 313 316 318 321 325 327 328
100 123 123 128 134 110 90 68 43 22 37 38 5 31 29 22 22 13 21 34 24 83 54 55 88 87 59 59 88 98 62 85 49 88 108 90 53 99 83 232 172 208 221 222 198 220 234 241 245 249 250 254 255 259 261 262 263 263 265 266 268 269 269 271 272 272 274 276 275 274 272 274 278 285 298 304 311 310 313 318 322 325 328 331 330
111 86 123 131 103 116 92 78 39 31 20 30 6 27 12 36 16 9 24 14 2 68 87 105 71 89 88 132 109 107 152 82 132 236 76 96 137 135 195 200 216 220 234 254 248 201 207 227 239 242 247 250 252 254 256 258 259 260 262 263 265 266 267 269 272 275 277 276 275 274 275 279 282 290 297 306 307 310 315 320 325 328 331 332 332
126 135 192 143 127 119 111 87 57 42 12 5 5 25 352 33 20 16 10 356 7 22 55 98 151 136 139 112 84 72 359 99 145 82 116 276 230 214 189 195 203 216 227 236 235 240 186 211 224 233 239 244 247 250 253 256 257 259 261 262 263 264 267 269 273 275 277 277 277 278 280 284 289 289 298 303 308 313 318 322 325 330 333 333 331
134 128 53 54 79 55 68 55 55 30 25 13 345 6 2 4 8 20 360 351 7 7 30 354 335 120 107 90 72 110 109 169 84 259 231 222 222 251 254 255 204 214 227 232 235 221 234 191 211 224 230 235 237 241 245 249 252 255 257 259 260 263 266 270 272 273 275 276 278 278 280 283 283 289 294 301 303 313 319 322 325 329 332 333 329
134 128 180 176 134 79 72 55 33 37 4 271 75 26 355 4 354 13 347 350 347 357 8 340 350 292 88 79 102 103 262 79 221 207 281 301 7 313 240 215 252 231 228 237 236 235 231 252 204 215 221 219 232 235 238 243 247 249 252 256 260 263 267 269 271 271 273 275 276 274 273 272 276 284 291 298 303 310 319 323 324 328 332 332 331
141 126 113 6 2 98 61 56 53 39 27 343 34 166 20 348 12 357 335 330 308 328 7 326 315 335 25 245 132 70 99 309 220 215 209 218 201 291 307 280 213 230 227 222 241 250 225 224 236 243 261 209 210 223 230 238 244 247 249 252 256 259 261 264 267 266 266 270 269 262 256 255 266 275 286 296 301 310 319 322 322 325 331 333 331
142 151 138 134 178 82 98 49 11 48 31 2 55 13 10 333 339 291 306 337 326 299 31 339 333 256 182 263 204 200 186 210 272 264 224 232 197 229 241 260 213 193 230 265 259 257 250 226 235 253 246 274 210 210 224 231 234 240 243 246 248 250 255 260 263 263 261 260 254 242 234 240 247 264 278 287 298 307 316 319 319 326 331 334 337
156 153 150 181 178 148 121 80 4 77 35 46 66 126 311 315 351 313 273 334 303 325 17 315 253 294 307 290 259 193 45 283 235 211 248 220 241 227 224 268 323 347 340 159 241 241 249 229 220 253 255 253 267 267 217 218 225 225 234 236 240 244 248 254 259 260 258 251 237 226 223 221 236 254 266 282 293 303 310 313 316 323 332 337 341
178 172 177 195 143 113 230 131 52 49 112 182 147 191 176 17 310 354 324 277 264 256 14 337 318 326 311 272 280 293 157 252 247 265 271 283 258 266 291 292 336 323 320 257 206 292 317 353 321 270 258 246 262 258 260 266 266 162 212 225 237 245 253 259 262 263 257 242 224 220 217 217 235 249 259 277 291 301 306 308 313 317 330 338 343
188 207 193 147 162 259 346 30 133 120 212 86 291 183 166 194 225 82 293 280 261 49 334 32 327 339 302 324 307 310 286 202 280 296 271 250 257 288 308 314 304 352 291 281 4 347 255 200 223 306 252 259 273 323 315 310 181 191 216 240 233 246 256 263 266 265 258 235 219 213 217 221 231 237 252 269 285 296 301 304 308 314 325 337 343
192 206 241 135 304 305 323 320 356 321 318 227 212 234 64 285 102 220 325 323 311 321 326 302 27 23 326 305 294 243 350 333 348 310 287 298 290 290 339 282 296 338 291 324 309 240 306 303 122 232 229 219 210 223 259 303 315 341 242 200 219 235 250 267 272 274 263 232 217 212 221 225 228 235 243 259 272 285 292 297 301 309 320 336 341
203 227 225 254 170 271 283 299 296 190 254 318 335 265 179 250 123 314 154 155 329 296 281 160 269 135 239 270 322 322 329 332 302 314 313 280 292 279 290 291 304 292 307 293 314 305 16 294 318 294 280 325 351 320 312 304 330 346 307 78 46 292 271 266 273 278 261 236 224 222 229 229 230 235 242 253 261 271 283 289 296 304 315 330 337
200 188 201 213 246 256 263 262 273 255 219 238 232 246 174 133 53 138 342 42 260 275 240 273 58 278 247 286 292 299 318 313 323 307 301 333 299 296 286 282 292 299 308 310 306 314 324 334 298 326 319 320 338 314 321 319 23 11 221 348 313 307 296 277 272 272 267 246 232 232 237 242 240 243 244 246 254 258 269 282 288 297 308 324 332
216 176 212 206 223 231 230 254 262 284 285 244 251 270 22 52 97 9 290 225 276 265 304 301 284 247 337 309 294 274 294 274 274 318 301 297 300 290 291 293 310 294 291 302 305 315 318 292 309 316 306 331 327 321 314 333 324 306 105 119 350 305 305 287 277 273 274 264 247 241 244 240 243 242 239 242 244 248 256 267 278 290 300 312 323
211 217 192 217 214 227 231 242 247 246 244 242 244 198 236 21 193 207 212 210 238 318 277 278 277 287 330 275 299 298 283 287 274 251 282 309 310 302 304 304 303 300 320 298 305 316 303 292 332 283 267 326 315 321 322 338 335 302 94 60 329 298 293 300 277 275 275 268 263 257 249 244 242 237 238 236 236 242 245 254 264 278 288 298 310
190 205 211 210 219 218 226 222 230 236 250 288 294 239 219 212 223 240 282 267 300 259 257 267 278 300 291 280 275 286 294 290 288 285 284 287 287 299 304 314 307 312 303 291 323 302 294 302 278 278 336 323 320 314 338 326 349 342 19 358 307 293 305 312 306 293 287 284 280 272 267 260 253 243 239 239 237 238 237 243 254 265 277 284 293
208 184 202 205 205 214 232 221 238 240 240 252 236 238 214 210 209 178 224 244 258 284 271 262 267 284 279 267 268 264 267 281 289 305 306 297 302 302 300 300 306 303 294 312 304 294 290 280 286 289 17 296 320 306 343 321 217 71 296 278 253 292 312 305 293 291 285 284 282 279 273 267 262 251 246 246 239 238 237 238 244 254 263 272 281
219 213 205 205 195 206 220 238 230 238 233 234 257 256 257 246 230 220 222 215 247 260 288 299 289 266 266 277 272 280 285 279 284 281 270 289 303 301 297 299 291 292 302 288 288 295 286 286 296 317 341 314 287 340 294 306 72 28 332 158 239 239 281 283 289 294 299 291 282 277 273 270 269 265 256 244 240 238 233 234 238 246 254 260 270
218 219 206 214 199 202 222 233 231 241 272 301 271 257 266 269 258 248 244 245 238 249 269 281 292 308 308 304 295 291 292 298 296 297 303 306 285 284 299 312 304 299 302 317 306 301 303 301 301 348 290 284 292 303 335 311 90 47 329 12 197 151 260 347 335 325 326 314 302 293 286 278 274 267 264 258 250 241 235 233 233 238 244 255 263
207 210 232 211 208 195 204 218 225 232 232 240 254 263 262 268 256 254 258 249 265 256 257 269 275 270 274 292 298 301 298 299 297 294 296 297 296 300 309 310 310 310 330 318 297 283 284 292 294 299 303 344 337 339 316 320 282 45 7 306 140 182 94 24 353 342 331 327 320 315 307 300 293 287 278 266 252 242 235 231 233 233 239 246 250
204 203 208 228 225 210 202 219 213 223 230 234 234 221 233 245 260 268 279 268 259 277 279 274 272 274 268 266 280 288 306 305 297 299 291 294 304 311 317 313 310 303 294 257 287 301 308 299 300 17 12 353 310 303 301 319 55 44 321 289 146 147 96 60 6 337 338 351 340 331 325 318 309 301 292 278 265 248 237 230 229 231 233 239 238
203 207 200 210 210 216 208 218 223 224 222 230 242 247 223 241 252 257 255 259 257 256 261 266 275 278 279 284 282 280 281 285 296 301 306 311 312 309 301 295 304 304 303 301 306 307 324 309 328 330 335 339 317 301 308 269 30 17 286 298 335 142 87 66 14 356 1 0 359 349 341 334 324 315 309 300 287 266 248 237 231 228 229 232 231
216 201 212 200 213 218 224 229 206 221 239 238 245 235 233 243 240 241 258 266 276 267 274 277 276 280 277 274 277 277 283 332 330 330 325 315 303 301 299 298 301 294 297 312 307 310 313 315 306 323 339 311 305 308 297 299 53 348 317 314 321 309 63 34 88 55 16 8 10 353 347 341 333 326 322 314 305 291 265 248 238 233 230 230 229
213 221 193 194 197 213 229 228 236 229 235 243 228 227 225 241 243 241 249 263 258 264 262 273 272 275 277 275 285 310 15 308 278 280 265 277 284 285 290 295 290 285 294 293 293 294 302 302 297 308 306 296 289 287 310 307 99 321 323 316 312 357 5 299 147 129 80 33 6 355 346 348 342 337 334 327 320 310 288 260 247 244 236 234 228
205 213 224 215 200 198 213 223 212 221 223 231 230 231 230 241 248 252 238 234 246 256 266 257 261 262 317 347 12 286 265 289 268 269 285 286 290 296 290 274 273 280 284 282 285 289 299 300 300 299 306 300 309 318 314 313 80 3 321 318 308 4 290 190 155 127 120 90 57 3 345 343 345 338 336 333 329 322 303 272 253 249 242 240 236
204 200 219 228 220 215 208 214 222 222 214 218 214 206 217 240 252 253 265 239 238 249 263 265 270 58 56 283 267 272 280 282 290 288 284 278 284 286 286 289 285 279 274 275 276 285 290 296 306 305 304 327 321 307 327 306 125 175 343 304 320 272 271 110 212 127 97 78 40 15 353 355 350 341 341 341 338 337 325 296 269 258 249 248 243
215 209 215 222 226 227 238 242 233 225 224 245 262 256 225 229 239 254 270 275 272 269 267 285 353 59 340 256 264 275 283 277 283 287 284 283 277 274 273 269 266 267 268 274 280 286 290 292 310 318 324 326 315 338 312 316 312 333 321 302 311 304 303 292 137 126 98 63 44 9 358 359 360 357 354 352 349 347 345 330 311 293 269 262 250
221 222 221 223 215 223 233 228 237 239 229 222 224 236 228 217 235 236 231 250 312 345 321 352 339 352 285 292 290 280 269 273 277 280 278 276 272 275 275 280 273 271 275 278 281 289 293 299 339 316 310 322 310 323 324 313 327 318 316 319 305 302 310 315 306 87 67 75 42 10 355 358 1 7 9 5 4 360 357 353 347 341 318 268 227
210 221 218 221 225 225 233 242 244 250 267 272 271 253 235 238 242 263 51 76 175 217 223 81 315 275 274 253 258 266 266 269 270 269 278 293 296 302 309 302 317 309 286 279 285 288 295 303 302 273 273 328 313 315 310 318 313 311 315 317 327 316 326 322 308 74 96 58 53 11 309 357 5 12 19 14 11 13 8 2 357 353 343 321 282
223 206 219 228 216 213 232 236 240 236 232 240 253 283 269 237 248 241 161 188 196 200 197 177 188 220 239 248 256 262 264 266 271 279 278 273 278 289 289 276 238 267 300 300 284 295 302 299 305 316 319 314 302 309 325 320 324 329 311 319 313 317 329 323 317 320 46 13 189 196 281 33 11 32 34 19 17 19 19 23 16 4 354 337 300
231 224 206 216 225 224 232 233 231 230 227 220 226 239 258 254 230 231 209 204 201 195 177 185 205 220 222 234 250 259 266 271 268 264 267 271 273 286 285 275 252 234 242 267 297 294 304 305 313 328 335 333 340 350 338 329 313 310 323 319 323 324 340 327 327 341 350 355 65 279 294 88 32 66 48 23 15 14 19 34 29 22 5 345 311
234 231 226 222 219 221 232 245 252 249 245 226 218 230 250 253 230 226 240 245 231 218 205 193 208 222 233 234 244 262 269 265 269 271 267 262 272 273 275 283 289 283 298 298 273 283 315 305 319 306 330 351 341 336 337 338 336 326 317 336 329 344 340 338 348 2 355 353 347 356 123 264 34 75 66 30 40 27 31 45 27 14 3 351 326
233 232 227 225 233 239 236 238 245 252 271 289 309 286 279 276 261 253 254 250 234 234 222 207 217 218 238 252 263 268 265 269 271 266 257 255 256 255 280 305 285 286 289 333 3 360 321 316 318 333 304 343 347 330 358 350 339 348 341 340 337 348 347 6 17 15 0 351 40 89 31 351 327 322 83 59 74 53 35 32 24 3 356 346 333
230 233 237 231 222 225 229 225 213 209 193 159 46 13 337 319 301 288 280 272 258 248 231 222 245 237 246 247 253 257 264 264 271 270 262 260 253 283 328 331 333 342 314 340 340 349 348 337 335 341 357 349 339 343 347 356 354 357 354 339 336 339 339 49 39 21 358 355 336 357 11 356 345 30 137 141 124 85 48 16 24 2 359 351 341
234 234 236 243 242 231 224 200 163 109 78 55 39 5 352 341 331 298 277 276 258 161 201 218 216 253 254 255 265 289 304 301 291 306 0 25 14 4 309 283 282 306 335 319 307 318 316 333 353 34 11 339 10 359 354 353 357 346 345 339 335 337 345 24 39 32 10 354 339 356 11 354 344 339 352 348 9 21 39 22 8 2 2 355 2
244 246 249 245 245 236 219 195 182 117 80 67 25 1 352 334 320 313 302 281 290 255 233 237 243 262 285 299 26 47 34 38 39 33 19 14 29 12 9 21 32 65 355 359 21 11 13 20 29 23 44 36 19 3 356 357 348 347 347 350 342 358 14 3 18 27 14 350 337 356 11 2 346 338 4 356 350 20 22 18 7 350 351 2 18
234 238 237 237 243 270 251 191 176 108 78 53 9 357 348 339 315 301 284 286 78 41 330 279 203 271 255 286 34 38 32 39 34 35 53 50 76 69 61 58 50 39 28 50 51 54 62 58 43 45 37 27 17 11 10 357 358 346 354 352 2 22 10 5 359 11 17 350 339 338 13 6 354 341 12 4 10 27 24 32 1 351 353 5 20
222 227 231 225 211 201 187 160 85 79 79 40 354 12 356 343 327 315 333 21 10 339 344 92 354 326 66 72 56 38 34 41 58 33 57 60 63 62 58 57 59 52 46 38 56 64 63 71 61 49 45 35 18 20 10 5 348 356 352 359 18 12 13 7 9 8 359 351 342 339 4 14 355 353 7 11 11 42 80 54 21 358 355 4 8
180 208 192 167 174 185 147 105 91 91 83 31 358 10 3 333 318 307 40 38 63 53 60 53 56 57 63 56 57 51 49 76 87 82 63 64 64 63 59 56 60 59 50 46 44 55 61 69 67 55 43 27 27 23 17 12 2 6 358 11 11 17 23 16 16 13 10 354 347 348 354 11 356 1 3 359 10 2 59 69 53 27 359 15 21
143 146 138 167 165 152 125 126 100 72 69 13 353 359 345 339 330 318 87 84 81 71 63 65 69 66 61 64 60 72 86 89 89 85 84 81 79 73 65 58 52 52 53 55 52 54 63 66 61 57 42 35 32 13 13 16 18 15 10 9 4 9 18 13 23 12 32 10 4 335 344 6 2 352 358 348 357 27 43 86 88 70 23 4 32
118 113 123 120 102 107 118 107 100 78 58 16 344 349 356 357 24 69 83 89 83 81 78 80 85 84 81 74 61 57 52 59 76 80 83 88 86 82 74 68 66 62 53 46 48 52 59 62 67 65 53 42 33 27 16 15 15 12 3 11 1 6 350 342 357 11 37 29 8 354 343 357 0 352 351 346 345 10 27 130 101 105 60 9 23
120 117 108 113 116 112 98 92 93 74 62 29 359 4 34 91 93 95 93 85 81 82 90 87 88 88 81 76 79 78 72 73 50 71 96 99 91 88 84 80 78 74 70 65 63 65 66 67 70 68 65 57 45 33 22 11 10 359 349 0 352 337 341 343 351 339 37 42 19 0 339 342 0 346 344 342 339 339 345 38 137 140 142 136 215
104 102 117 116 118 110 104 102 89 69 49 18 24 67 74 85 101 104 100 96 96 94 91 90 84 82 80 84 86 81 66 72 44 63 92 95 88 85 84 82 82 86 87 83 79 77 81 85 87 90 88 76 61 48 31 18 9 2 15 9 5 355 353 346 350 342 348 35 32 8 332 334 355 340 340 337 329 315 340 355 21 157 171 176 187
112 117 118 106 91 91 98 92 81 74 61 41 63 80 90 88 96 102 101 104 102 95 83 73 74 72 71 70 67 73 76 75 40 72 82 91 90 88 87 86 81 78 77 73 80 94 121 116 108 96 75 65 63 63 48 29 20 14 16 18 2 359 354 354 349 345 331 0 41 7 337 339 335 340 337 332 320 329 345 359 340 123 171 179 200
110 120 114 108 98 84 84 87 79 81 83 67 54 66 69 83 102 111 112 109 100 90 86 74 64 63 60 58 55 55 60 55 51 44 62 83 84 87 86 81 79 76 69 67 67 63 53 50 50 47 43 36 34 28 38 40 29 26 20 10 1 2 356 352 349 337 332 352 42 12 338 332 332 338 342 331 328 325 335 334 333 338 340 344 201